Location: Pordenone
(45.9640°N, 12.6580°E)
Time: 03:51:27
(UTC+02:00)

ISS - Pass Details

Date: 21 May 2021
Orbit: 417 x 422 km, 51.6° (Epoch: 14 June)

Event Time Altitude Azimuth Distance (km) Brightness Sun altitude
Rises 23:44:54 0° 295° (WNW) 2,369 0.7 -21.2°
Reaches altitude 10° 23:47:06 10° 304° (NW) 1,504 -0.2 -21.3°
Maximum altitude 23:50:17 38° 14° (NNE) 663 -2.4 -21.5°
Enters shadow 23:51:22 29° 57° (ENE) 807 -2.2 -21.5°
